Location: Newark
(52.2090°N, 4.1550°W)
Time: 16:27:55
(UTC+00:00)

Explorer 7 - Pass Details

Date: 20 September 2019
Orbit: 485 x 680 km, 50.3° (Epoch: 14 October)

Event Time Altitude Azimuth Distance (km) Brightness Sun altitude
Rises 01:46:20 0° 263° (W) 2,920 - -32.8°
Reaches altitude 10° 01:48:37 10° 261° (W) 2,039 - -32.7°
Maximum altitude 01:53:20 72° 178° (S) 701 - -32.3°
Exits shadow 01:57:20 15° 96° (E) 1,782 9.6 -32.0°
Drops below altitude 10° 01:58:13 10° 95° (E) 2,112 10.1 -31.9°
Sets 02:00:36 0° 93° (E) 3,034 11.0 -31.7°
